SCP
0 0 0 0 0 0 0 0 0 0 0 0 0 0 0 0 0 0 0 0 0 0
0 0 0 0 0 0 0 0 0 0 0 0 0 0 0 0 0 0 0 0 0 0
0 0 0 0 0 0 0 0 0 0 0 0 0 0 0 0 0 0 0 0 0 0
0 0 0 0 0 0 0 0 0 0 0 0 0 0 0 0 0 0 0 0 0 0
0 0 0 0 0 0 0 0 0 0 0 0 0 0 0 0 0 0 0 0 0 0
0 0 0 0 0 0 0 0 0 0 0 0 0 0 0 0 0 0 0 0 0 0
0 0 0 0 0 0 0 0 0 0 0 0 0 0 0 0 0 0 0 0 0 0
0 0 0 0 0 0 0 0 0 0 0 0 0 0 0 0 0 0 0 0 0 0
0 0 0 0 0 0 0 0 0 0 0 0 0 0 0 0 0 0 0 0 0 0
0 0 0 0 0 0 0 0 0 0 0 0 0 0 0 0 0 0 0 -0 -0 -0
0 0 0 0 0 0 0 0 0 0 0 0 0 0 0 0 0 0 0 -0 -0 -0
0 0 0 0 0 0 0 0 0 0 0 0 0 0 0 0 0 0 0 0 -0 0
0 0 0 0 0 0 0 0 0 0 0 0 0 0 0 0 0 0 0 0 -0 -0
0 0 0 0 0 0 0 0 0 0 0 0 0 0 0 0 0 0 0 0 0 0
Wind_Speed_500mb
75 81 85 85 84 84 82 81 76 71 68 71 69 66 61 66 68 62 62 62 62 70
78 79 81 80 77 77 77 80 77 76 78 80 82 80 74 76 80 85 83 80 72 73
76 78 78 77 76 76 76 75 75 80 80 80 77 80 85 88 87 80 77 77 79 74
73 73 73 74 75 73 72 72 74 76 79 78 77 78 83 87 91 90 89 78 73 76
71 73 74 74 73 71 69 71 73 74 76 75 77 78 80 84 87 88 89 85 79 81
67 70 75 74 71 67 69 70 73 76 79 81 82 81 79 78 79 82 90 90 87 85
66 71 74 72 69 68 69 73 75 77 82 84 82 79 75 74 75 76 79 85 90 86
60 66 68 66 66 69 72 72 73 76 79 79 74 72 69 70 74 79 82 79 80 85
56 64 63 62 63 70 71 73 76 77 75 72 75 78 71 64 65 71 77 81 80 79
53 58 59 58 61 68 71 77 80 78 71 71 83 85 63 46 40 45 56 58 71 78
46 51 53 56 60 66 71 73 77 78 77 74 82 91 60 40 45 47 23 35 47 62
39 44 49 55 59 59 62 68 76 78 79 83 83 88 62 57 71 72 63 27 16 39
31 37 42 47 52 53 55 62 71 79 86 85 82 88 76 63 76 81 82 78 61 10
24 29 32 39 46 51 58 63 73 80 88 92 98 88 78 68 77 88 90 89 94 79
Wind_Direction_500mb
327 327 327 327 324 318 313 311 311 305 301 299 296 293 284 284 280 275 267 261 262 262
330 330 330 329 324 317 316 317 312 306 302 300 298 292 285 279 272 261 254 250 253 259
332 333 335 331 328 327 324 318 314 312 309 302 293 287 283 280 275 267 259 256 258 253
335 336 335 333 332 329 325 325 321 319 314 309 301 295 287 279 274 270 265 257 253 254
338 338 337 338 335 333 333 332 329 324 319 314 308 303 295 288 280 271 263 262 256 253
341 340 341 342 339 339 339 336 335 332 331 327 318 309 302 292 281 271 267 260 254 251
345 343 344 343 342 345 345 344 342 341 337 331 325 315 307 299 291 281 270 261 254 249
347 346 346 348 348 353 354 349 344 341 335 329 326 323 314 305 295 286 278 267 255 247
351 351 353 355 355 1 357 352 348 343 336 339 350 340 322 308 297 286 277 266 255 244
356 356 0 1 5 9 4 357 354 348 344 352 6 350 334 324 330 311 289 271 245 237
1 2 10 11 14 15 8 7 5 2 359 358 10 3 359 5 19 17 328 288 246 234
6 7 17 18 19 21 18 19 19 17 14 11 13 12 14 37 38 35 39 32 272 226
7 10 19 23 27 26 26 25 25 22 24 24 27 21 21 41 49 43 39 57 76 153
12 18 27 30 34 40 44 39 34 32 32 32 30 37 34 38 57 53 52 56 61 85
Wind_Speed_850mb
75 81 85 85 84 84 82 81 76 71 68 71 69 66 61 66 68 62 62 62 62 70
78 79 81 80 77 77 77 80 77 76 78 80 82 80 74 76 80 85 83 80 72 73
76 78 78 77 76 76 76 75 75 80 80 80 77 80 85 88 87 80 77 77 79 74
73 73 73 74 75 73 72 72 74 76 79 78 77 78 83 87 91 90 89 78 73 76
71 73 74 74 73 71 69 71 73 74 76 75 77 78 80 84 87 88 89 85 79 81
67 70 75 74 71 67 69 70 73 76 79 81 82 81 79 78 79 82 90 90 87 85
66 71 74 72 69 68 69 73 75 77 82 84 82 79 75 74 75 76 79 85 90 86
60 66 68 66 66 69 72 72 73 76 79 79 74 72 69 70 74 79 82 79 80 85
56 64 63 62 63 70 71 73 76 77 75 72 75 78 71 64 65 71 77 81 80 79
53 58 59 58 61 68 71 77 80 78 71 71 83 85 63 46 40 45 56 58 71 78
46 51 53 56 60 66 71 73 77 78 77 74 82 91 60 40 45 47 23 35 47 62
39 44 49 55 59 59 62 68 76 78 79 83 83 88 62 57 71 72 63 27 16 39
31 37 42 47 52 53 55 62 71 79 86 85 82 88 76 63 76 81 82 78 61 10
24 29 32 39 46 51 58 63 73 80 88 92 98 88 78 68 77 88 90 89 94 79
Wind_Direction_850mb
327 327 327 327 324 318 313 311 311 305 301 299 296 293 284 284 280 275 267 261 262 262
330 330 330 329 324 317 316 317 312 306 302 300 298 292 285 279 272 261 254 250 253 259
332 333 335 331 328 327 324 318 314 312 309 302 293 287 283 280 275 267 259 256 258 253
335 336 335 333 332 329 325 325 321 319 314 309 301 295 287 279 274 270 265 257 253 254
338 338 337 338 335 333 333 332 329 324 319 314 308 303 295 288 280 271 263 262 256 253
341 340 341 342 339 339 339 336 335 332 331 327 318 309 302 292 281 271 267 260 254 251
345 343 344 343 342 345 345 344 342 341 337 331 325 315 307 299 291 281 270 261 254 249
347 346 346 348 348 353 354 349 344 341 335 329 326 323 314 305 295 286 278 267 255 247
351 351 353 355 355 1 357 352 348 343 336 339 350 340 322 308 297 286 277 266 255 244
356 356 0 1 5 9 4 357 354 348 344 352 6 350 334 324 330 311 289 271 245 237
1 2 10 11 14 15 8 7 5 2 359 358 10 3 359 5 19 17 328 288 246 234
6 7 17 18 19 21 18 19 19 17 14 11 13 12 14 37 38 35 39 32 272 226
7 10 19 23 27 26 26 25 25 22 24 24 27 21 21 41 49 43 39 57 76 153
12 18 27 30 34 40 44 39 34 32 32 32 30 37 34 38 57 53 52 56 61 85